Location: Neuvy Saint Sepulchre
(46.5953°N, 1.8122°E)
Time: 15:48:24
(UTC+02:00)

ISS - Pass Details

Date: 14 May 2026
Orbit: 414 x 424 km, 51.6° (Epoch: 21 May)

Event Time Altitude Azimuth Distance (km) Brightness Sun altitude
Rises 00:55:34 0° 294° (WNW) 2,354 0.6 -23.7°
Reaches altitude 10° 00:57:43 10° 301° (WNW) 1,491 -0.4 -23.8°
Enters shadow 01:00:21 40° 343° (NNW) 633 -2.4 -23.9°
